• MPC Preparation (Info)

  • MPEC 2011-L39 : 2011 LT17

    The following Minor Planet Electronic Circular may be linked-to from your own Web pages, but must not otherwise be redistributed electronically.

    A form allowing access to any MPEC is at the bottom of this page.


    Read MPEC 2011-L38 Read MPEC 2011-L40


    M.P.E.C. 2011-L39                                Issued 2011 June 10, 21:30 UT
    
         The Minor Planet Electronic Circulars contain information on unusual
             minor planets and routine data on comets.  They are published
       on behalf of Commission 20 of the International Astronomical Union by the
              Minor Planet Center, Smithsonian Astrophysical Observatory,
                              Cambridge, MA 02138, U.S.A.
    
                 Prepared using the Tamkin Foundation Computer Network
    
                                  MPC@CFA.HARVARD.EDU
                URL https://www.minorplanetcenter.net/    ISSN 1523-6714
    
                                       2011 LT17
    
    Observations:
         K11L17T* C2011 06 09.33984 17 11 37.39 +32 12 05.3          17.1 VrEL039703
         K11L17T  C2011 06 09.34684 17 11 32.38 +32 12 20.7          17.1 VrEL039703
         K11L17T  C2011 06 09.35388 17 11 27.31 +32 12 35.7          17.1 VrEL039703
         K11L17T  C2011 06 09.36087 17 11 22.23 +32 12 50.4          17.1 VrEL039703
         K11L17T  C2011 06 09.39815 17 10 55.30 +32 14 03.9          16.2 VrEL039703
         K11L17T  C2011 06 09.39873 17 10 54.87 +32 14 08.4          17.0 VrEL039703
         K11L17T  C2011 06 09.39931 17 10 54.44 +32 14 09.5          16.9 VrEL039703
         K11L17T  C2011 06 09.39990 17 10 54.12 +32 14 10.4          16.8 VrEL039703
         K11L17T  C2011 06 09.41005 17 10 46.79 +32 14 32.2          16.8 RcEL039854
         K11L17T  C2011 06 09.41085 17 10 46.21 +32 14 33.8          16.8 RcEL039854
         K11L17T  C2011 06 09.41165 17 10 45.63 +32 14 35.6          17.0 RcEL039854
         K11L17T |C2011 06 09.42233 17 10 37.11 +32 14 49.4          16.8 RoEL039H06
         K11L17T |C2011 06 09.42404 17 10 35.95 +32 14 52.6          16.9 RoEL039H06
         K11L17T |C2011 06 09.42663 17 10 34.06 +32 14 57.7          16.8 RoEL039H06
         K11L17T |C2011 06 09.42836 17 10 32.82 +32 15 01.2          16.5 RoEL039H06
         K11L17T 7C2011 06 09.57544 17 08 51.43 +32 21 18.6          17.0 VvEL039F65
         K11L17T 7C2011 06 09.57712 17 08 50.16 +32 21 21.8                vEL039F65
         K11L17T 7C2011 06 09.57874 17 08 48.94 +32 21 24.8                vEL039F65
         K11L17T 7C2011 06 09.58046 17 08 47.64 +32 21 28.1                vEL039F65
         K11L17T 7C2011 06 09.58206 17 08 46.47 +32 21 31.3                vEL039F65
         K11L17T KC2011 06 09.91258 17 04 59.11 +32 33 49.3                uEL039J95
         K11L17T KC2011 06 09.91372 17 04 58.16 +32 33 52.3                uEL039J95
         K11L17T KC2011 06 09.91490 17 04 57.17 +32 33 55.5          16.5 RuEL039J95
         K11L17T KC2011 06 10.26771 16 59 55.16 +32 50 40.1          16.1 RtEL039H47
         K11L17T KC2011 06 10.27057 16 59 52.38 +32 50 47.6          16.5 RtEL039H47
         K11L17T  C2011 06 10.27155 16 59 56.49 +32 50 18.5          16.6  rEL039718
         K11L17T KC2011 06 10.27379 16 59 49.19 +32 50 56.1          16.5 RtEL039H47
         K11L17T  C2011 06 10.27818 16 59 50.02 +32 50 37.3          16.6  rEL039718
         K11L17T KC2011 06 10.27928 16 59 43.80 +32 51 10.3          16.2 RtEL039H47
         K11L17T  C2011 06 10.28511 16 59 43.25 +32 50 56.7          16.6  rEL039718
         K11L17T  C2011 06 10.29209 16 59 36.41 +32 51 16.1          16.6  rEL039718
         K11L17T KC2011 06 10.85089116 50 19.17 +33 17 21.7          16.7 VvEL039B03
         K11L17T KC2011 06 10.85570516 50 13.42 +33 17 37.5          16.6 VvEL039B03
         K11L17T KC2011 06 10.86051816 50 07.64 +33 17 53.6          16.5 VvEL039B03
         K11L17T KC2011 06 10.86538616 50 01.76 +33 18 09.4          16.5 VvEL039B03
         K11L17T KC2011 06 10.87022316 49 55.92 +33 18 25.3          16.6 VvEL039B03
    
    Observer details:
    703 Catalina Sky Survey.  Observer R. A. Kowalski.  Measurers J. D. Ahern,
        E. C. Beshore, A. Boattini, G. J. Garradd, A. R. Gibbs, P. Tricarico,
        A. D. Grauer, R. E. Hill, R. A. Kowalski, S. M. Larson, R. H. McNaught.
        0.68-m Schmidt + CCD.
    718 Wiggins Observatory, Tooele.  Observer P. Wiggins.  0.35-m f/5.5
        Schmidt-Cassegrain + CCD.
    854 Sabino Canyon Observatory, Tucson.  Observer J. E. McGaha.  0.36-m f/10.0
        Schmidt-Cassegrain + CCD.
    B03 Alter Satzberg, Vienna.  Observer M. Pietschnig.  0.35-m f/5.8
        Schmidt-Cassegrain + CCD.
    F65 Haleakala-Faulkes Telescope North.  Observers P. Miller, P. Roche,
        A. Tripp, R. Miles, R. Holmes, S. Foglia, L. Buzzi.  Measurer L. Buzzi.
        2.0-m f/10 Ritchey-Chretien + CCD.
    H06 RAS Observatory, Mayhill.  Observer H. Sato.  0.25-m f/3.4 reflector + CCD.
    H47 Vicksburg.  Observer C. Bell.  0.3-m Schmidt-Cassegrain + CCD.
    J95 Great Shefford.  Observer P. Birtwhistle.  0.40-m f/6.0 Schmidt-Cassegrain
        + CCD.
    
    Orbital elements:
    2011 LT17                                           PHA, Earth MOID = 0.0035 AU
    Epoch 2011 Aug. 27.0 TT = JDT 2455800.5                 MPC
    M   3.68811              (2000.0)            P               Q
    n   0.85527929     Peri.  270.58252     +0.92944893     +0.10365619
    a   1.0991680      Node    83.50594     +0.05406997     +0.91109249
    e   0.2870637      Incl.   20.87787     -0.36496729     +0.39895597
    P   1.15           H   21.5           G   0.15           U   7
    Residuals in seconds of arc
    110609 703  0.1-  0.2-    110609 H06  0.4+  0.3+    110610 H47  0.1+  0.1+
    110609 703  0.2+  0.0     110609 H06  0.0   0.4+    110610 718  0.1-  0.0
    110609 703  0.2+  0.1-    110609 H06  0.1-  0.6+    110610 H47  0.2-  0.2+
    110609 703  0.4-  0.2-    110609 F65  0.2+  0.1+    110610 718  0.2-  0.1+
    110609 703 (0.6-  3.8-)   110609 F65  0.2+  0.1+    110610 H47  0.1+  0.1+
    110609 703  0.8-  0.4-    110609 F65  0.1+  0.0     110610 718  0.0   0.1+
    110609 703  0.9-  0.5-    110609 F65  0.1+  0.0     110610 718  0.1+  0.1+
    110609 703  0.4+  0.8-    110609 F65  0.5+  0.2+    110610 B03  0.1-  0.0
    110609 854  0.3+  0.3+    110609 J95  0.0   0.0     110610 B03  0.1+  0.1-
    110609 854  0.2+  0.3+    110609 J95  0.0   0.1-    110610 B03  0.1+  0.1+
    110609 854  0.2+  0.5+    110609 J95  0.0   0.2-    110610 B03  0.1-  0.0
    110609 H06  0.4-  0.4+    110610 H47  0.3-  0.1+    110610 B03  0.0   0.0
    
    Ephemeris:
    2011 LT17                a,e,i = 1.10, 0.29, 21                  q = 0.7836
    Date    TT    R. A. (2000) Decl.     Delta      r     Elong.  Phase     V
    2011 05 11    17 56 02.6 +24 45 16   0.2782  1.1785   121.3    47.1    20.9
    ...
    2011 05 26    17 55 01.9 +27 48 19   0.1593  1.1118   124.9    48.4    19.6
    ...
    2011 06 03    17 44 23.6 +29 39 02   0.09670 1.0739   126.0    49.8    18.4
    ...
    2011 06 09    17 15 06.7 +31 59 38   0.05044 1.0449   125.1    52.6    17.0
    2011 06 10    17 03 45.1 +32 38 46   0.04288 1.0400   124.4    53.7    16.7
    2011 06 11    16 47 19.9 +33 26 11   0.03544 1.0351   123.2    55.2    16.3
    ...
    2011 06 17    08 45 54.0 -07 11 59   0.01801 1.0056    54.8   124.4    18.0
    ...
    2011 06 25    06 49 08.1 -23 38 53   0.07714 0.9664    47.9   128.7    21.4
    ...
    2011 07 10    06 27 34.5 -23 40 27   0.1952  0.8962    47.4   123.4    22.8
    
    A. U. Tomatic                (C) Copyright 2011 MPC           M.P.E.C. 2011-L39
    

    Read MPEC 2011-L38 Read MPEC 2011-L40


    MPEC number:

    Enter an MPEC number in one of the following forms:

    • 1997-B01 (the full form)
    • J97B01 (the packed version of the full form)
    • B01 (the abbreviated form)